Weather History for KP68 - May, 2014

Change the Weather History Date:

Friday, May 16, 2014

  Actual Average Record
Temperature  
Mean Temperature 65 °F 52 °F  
Max Temperature 81 °F 70 °F 84 °F (2007)
Min Temperature 48 °F 34 °F 12 °F (1968)
Degree Days  
Heating Degree Days 0 13  
Month to date heating degree days 224 242  
Since 1 July heating degree days 6395 7046  
Cooling Degree Days 0 0  
Month to date cooling degree days 0 0  
Year to date cooling degree days 0 0  
Growing Degree Days 14 (Base 50)    
Moisture  
Dew Point 20 °F    
Average Humidity 28    
Maximum Humidity 50    
Minimum Humidity 6    
Precipitation  
Precipitation 0.00 in 0.02 in 1.11 in (1987)
Month to date precipitation 0.92 0.40  
Year to date precipitation 4.52 3.90  
Sea Level Pressure  
Sea Level Pressure 29.94 in    
Wind  
Wind Speed 9 mph (SW)    
Max Wind Speed 21 mph    
Max Gust Speed 27 mph    
T = Trace of Precipitation, MM = Missing Value Source: NWS Daily Summary

Daily Weather History Graph

Daily Weather History Graph

Search for Another Location

Airport or City:

Trip Planner

Search our weather history database for the weather conditions in past years. The results will help you decide how hot, cold, wet, or windy it might be!

Date:

Astronomy

May. 16, 2014 Rise Set
Actual Time 5:28 AM PDT 7:52 PM PDT
Civil Twilight 4:58 AM PDT 8:23 PM PDT
Nautical Twilight 4:20 AM PDT 9:00 PM PDT
Astronomical Twilight 3:38 AM PDT 9:42 PM PDT
Moon 10:03 PM PDT (5/16) 7:14 AM PDT (5/16)
Length of Visible Light 15h 24m
Length of Day
14h 23m
Waning Gibbous, 95% of the Moon is Illuminated
May 16
Waning Gibbous
May 21
Last Quarter
May 28
New
Jun 5
First Quarter
Jun 12
Full

Hourly Weather History & Observations

Time (PDT) Temp. Dew Point Humidity Pressure Visibility Wind Dir Wind Speed Gust Speed Precip Events Conditions
12:53 AM 52.0 °F 30.9 °F 45% 30.02 in - South 8.1 mph - N/A   Unknown
1:53 AM 50.0 °F 30.9 °F 48% 30.01 in - South 9.2 mph - N/A   Unknown
2:53 AM 50.0 °F 26.1 °F 39% 30.00 in - SSW 12.7 mph - N/A   Unknown
3:53 AM 52.0 °F 27.0 °F 38% 29.99 in - South 10.4 mph - N/A   Unknown
4:53 AM 50.0 °F 25.0 °F 38% 29.99 in - South 11.5 mph - N/A   Unknown
5:53 AM 48.9 °F 30.0 °F 48% 30.02 in - South 8.1 mph - N/A   Unknown
6:53 AM 54.0 °F 27.0 °F 35% 30.02 in - South 8.1 mph - N/A   Unknown
7:53 AM 54.0 °F 28.0 °F 37% 30.04 in - Calm Calm - N/A   Unknown
8:53 AM 61.0 °F 30.9 °F 32% 30.04 in - SSW 4.6 mph - N/A   Unknown
9:53 AM 70.0 °F 21.9 °F 16% 30.02 in - West 11.5 mph - N/A   Unknown
10:53 AM 72.0 °F 18.0 °F 13% 30.01 in - WNW 6.9 mph - N/A   Unknown
11:53 AM 73.9 °F 15.1 °F 11% 29.99 in - SW 6.9 mph - N/A   Unknown
1:53 PM 79.0 °F 12.0 °F 8% 29.92 in - Variable 5.8 mph 18.4 mph N/A   Unknown
2:53 PM 81.0 °F 14.0 °F 8% 29.88 in - North - - N/A   Unknown
3:53 PM 81.0 °F 10.0 °F 7% 29.86 in - West 16.1 mph 26.5 mph N/A   Unknown
4:53 PM 80.1 °F 8.1 °F 6% 29.85 in - West 18.4 mph 25.3 mph N/A   Unknown
5:53 PM 79.0 °F 8.1 °F 7% 29.84 in - WNW 12.7 mph 26.5 mph N/A   Unknown
6:53 PM 78.1 °F 9.0 °F 7% 29.82 in - NNW 13.8 mph - N/A   Unknown
7:53 PM 69.1 °F 12.9 °F 11% 29.86 in - NW 10.4 mph - N/A   Unknown
8:53 PM 59.0 °F 19.9 °F 22% 29.89 in - SSW 5.8 mph - N/A   Unknown
9:53 PM 50.0 °F 27.0 °F 41% 29.89 in - SSE 9.2 mph - N/A   Unknown
10:53 PM 53.1 °F 21.9 °F 30% 29.87 in - Calm Calm - N/A   Unknown
11:53 PM 54.0 °F 17.1 °F 23% 29.88 in - South 9.2 mph - N/A   Unknown